Regional Weather Roundup
Issued by NWS

Home | Current Version | Previous Version | Graphics & Text | Print | Product List | Glossary On
Versions: 1 2 3 4 5 6 7 8 9 10 11 12 13 14 15 16 17 18 19 20 21 22 23 24 25 26 27 28 29 30 31 32 33 34 35 36 37 38 39 40 41 42 43 44 45 46 47 48 49 50
000
ASUS43 KDMX 311807
RWRIA

WEATHER ROUNDUP FOR IOWA
NATIONAL WEATHER SERVICE DES MOINES IA
100 PM CDT THU JUL 31 2014

NOTE: "FAIR" INDICATES FEW OR NO CLOUDS BELOW 12,000 FEET WITH NO
SIGNIFICANT WEATHER AND/OR OBSTRUCTIONS TO VISIBILITY.

* - THESE STATIONS ARE NOT NWS STATIONS...THUS NOT UNDER NWS
QUALITY CONTROL.  THEY ALSO DO NOT REPORT WEATHER SUCH
AS PRECIPITATION OR FOG.

IAZ001>003-012>014-020>022-031>034-043>046-311900-
   NORTHWEST IOWA

CITY           SKY/WX    TMP DP  RH WIND       PRES   REMARKS
CARROLL *      SUNNY     77  57  50 VRB6G13   30.09F
CHEROKEE *     PTSUNNY   77  56  48 SW6       30.08S
DENISON *      MOSUNNY   73  61  64 CALM      30.08S
LE MARS *      PTSUNNY   73  61  64 SW6       30.09S
ORANGE CITY *  SUNNY     75  61  60 SW6       30.09S
SHELDON *      MOSUNNY   75  59  57 VRB3      30.08S
SIOUX CITY     PTSUNNY   72  62  71 CALM      30.08F
6HR MIN TEMP:  56; 6HR MAX TEMP:  72; 6HR PCP:  0.01;

SPENCER        MOSUNNY   79  55  43 MISG      30.09S
6HR MIN TEMP:  50; 6HR MAX TEMP:  79;

STORM LAKE *   SUNNY     75  57  53 CALM      30.10F
$$

IAZ055>058-069>071-079>083-090>094-311900-
   SOUTHWEST IOWA

CITY           SKY/WX    TMP DP  RH WIND       PRES   REMARKS
ATLANTIC *     MOSUNNY   79  57  47 VRB5G12   30.09F HX  80
AUDUBON *      SUNNY     81  61  50 SW8       30.11F HX  81
CLARINDA *     MOSUNNY   81  57  44 W8        30.12S HX  81
COUNCIL BLFS * SUNNY     79  59  50 S8G14     30.08F HX  80
CRESTON *      MOSUNNY   77  55  47 SW8       30.11F
HARLAN  *      MOSUNNY   79  57  47 VRB5G12   30.13S HX  80
LAMONI         PTSUNNY   79  55  43 W7        30.11F
6HR MIN TEMP:  58; 6HR MAX TEMP:  79;

RED OAK *      MOSUNNY   81  59  47 S9        30.10F HX  81
SHENANDOAH *   SUNNY     81  57  44 VRB3G12   30.11S HX  81
$$

IAZ047>049-059>061-072>074-084-311900-
   CENTRAL IOWA

CITY           SKY/WX    TMP DP  RH WIND       PRES   REMARKS
AMES           SUNNY     79  57  46 W7        30.09S HX  80
6HR MIN TEMP:  56; 6HR MAX TEMP:  79;

ANKENY *       MOSUNNY   79  57  47 W9        30.09S HX  80
CHARITON *     MOSUNNY   77  57  50 SW6       30.10F
DES MOINES     MOSUNNY   81  56  42 W8        30.08F HX  81
6HR MIN TEMP:  60; 6HR MAX TEMP:  82;

GRINNELL*      MOSUNNY   77  59  53 W6        30.09F
KNOXVILLE *    MOSUNNY   79  57  47 W8        30.08F HX  80
MARSHALLTOWN   SUNNY     76  59  55 W7        30.08F
6HR MIN TEMP:  55; 6HR MAX TEMP:  79;

PELLA *        SUNNY     80  58  47 SW6       30.10F HX  80
PERRY *          N/A     79  57  47 W3        30.09F HX  80
$$

IAZ004>006-015-016-023>025-035-036-311900-
   NORTH CENTRAL IOWA

CITY           SKY/WX    TMP DP  RH WIND       PRES   REMARKS
ALGONA *       MOSUNNY   79  55  44 W8        30.08F
CLARION *      MOSUNNY   77  57  50 W5        30.08F
ESTHERVILLE    MOSUNNY   77  55  46 VRB6      30.08S
6HR MIN TEMP:  56; 6HR MAX TEMP:  77;

FORT DODGE *   MOSUNNY   79  55  44 SW6       30.09F
MASON CITY     MOSUNNY   78  58  49 VRB6      30.09F
6HR MIN TEMP:  58; 6HR MAX TEMP:  79;

FOREST CITY *  PTSUNNY   77  59  53 W5        30.08S
IOWA FALLS *     N/A     77  57  50 W6        30.10S
$$

IAZ007>011-017>019-026>030-037>042-050>054-066-311900-
   NORTHEAST IOWA

CITY           SKY/WX    TMP DP  RH WIND       PRES   REMARKS
CEDAR RAPIDS   MOSUNNY   79  60  52 W10       30.07F HX  80
6HR MIN TEMP:  57; 6HR MAX TEMP:  79;

CHARLES CITY * PTSUNNY   75  57  53 VRB5      30.08S
CLINTON *      MOSUNNY   79  63  57 W10       30.10S HX  80
DECORAH *      PTSUNNY   75  57  53 VRB5G13   30.06S
DUBUQUE        MOSUNNY   77  59  53 W12       30.07F
6HR MIN TEMP:  56; 6HR MAX TEMP:  77;

MONTICELLO *   MOSUNNY   79  59  50 NW12      30.07F HX  80
OELWEIN *      MOSUNNY   75  57  53 W8        30.08F
WATERLOO       PTSUNNY   80  57  45 W10       30.06F HX  80
6HR MIN TEMP:  57; 6HR MAX TEMP:  81;

$$

IAZ064-065-067-068-078-311900-
   EAST CENTRAL IOWA

CITY           SKY/WX    TMP DP  RH WIND       PRES   REMARKS
DAVENPORT      MOSUNNY   78  60  53 W13       30.08F
6HR MIN TEMP:  58; 6HR MAX TEMP:  79;

IOWA CITY      MOSUNNY   80  59  48 W10       30.09F HX  81
6HR MIN TEMP:  60; 6HR MAX TEMP:  80;

MT. PLEASANT * CLOUDY    80  59  48 SW6       30.09F HX  81
MUSCATINE *    MOSUNNY   82  59  44 W9        30.08F HX  82
QUAD CITIES    MOSUNNY   82  62  50 W12       30.07F HX  83
6HR MIN TEMP:  60; 6HR MAX TEMP:  82;

$$

IAZ062-063-075>077-085>089-095>099-311900-
   SOUTHEAST IOWA

CITY           SKY/WX    TMP DP  RH WIND       PRES   REMARKS
BURLINGTON     PTSUNNY   80  63  55 SW8       30.09S HX  81
6HR MIN TEMP:  60; 6HR MAX TEMP:  81;

FAIRFIELD *    MOSUNNY   77  61  57 NW5       30.10S
FORT MADISON * PTSUNNY   81  61  50 NW3       30.10F HX  81
KEOKUK *       MOSUNNY   79  61  53 W7        30.09F HX  80
OSKALOOSA *      N/A     78  60  53 SW5       30.10F
CENTERVILLE *  SUNNY     77  57  50 W6        30.12F
OTTUMWA        MOSUNNY   78  60  53 W5        30.08F
6HR MIN TEMP:  57; 6HR MAX TEMP:  79;

WASHINGTON *   MOSUNNY   79  61  53 W8        30.09F HX  80
$$

ABBREVIATIONS USED IN REMARKS
   TC - TEMPERATURES IN CELSIUS
  WCI - WIND CHILL INDEX
   HX - HEAT INDEX
  VSB - VISIBILITY
$$




USA.gov is the U.S. government's official web portal to all federal, state and local government web resources and services.